21-05-2022, 00:00:09,    217,    0.0,    9.3,   0.00,   0.00, 1016.3,   81.6, -999.0
21-05-2022, 00:00:19,    217,    0.0,    9.4,   0.00,   0.00, 1016.2,   81.6, -999.0
21-05-2022, 00:00:29,    217,    0.0,    9.4,   0.00,   0.00, 1016.3,   81.5, -999.0
21-05-2022, 00:00:38,    219,    0.2,    9.4,   0.00,   0.00, 1016.4,   81.8, -999.0
21-05-2022, 00:00:48,    219,    0.0,    9.3,   0.00,   0.00, 1016.3,   81.6, -999.0
21-05-2022, 00:00:59,    219,    0.0,    9.3,   0.00,   0.00, 1016.3,   81.7, -999.0
21-05-2022, 00:01:08,    218,    0.0,    9.4,   0.00,   0.00, 1016.4,   81.6, -999.0
21-05-2022, 00:01:18,    219,    0.0,    9.3,   0.00,   0.00, 1016.3,   81.5, -999.0
21-05-2022, 00:01:28,    183,    0.0,    9.3,   0.00,   0.00, 1016.3,   81.5, -999.0
21-05-2022, 00:01:38,    191,    0.0,    9.3,   0.00,   0.00, 1016.3,   81.6, -999.0
21-05-2022, 00:01:48,    192,    0.0,    9.3,   0.00,   0.00, 1016.3,   81.6, -999.0
21-05-2022, 00:01:58,    194,    0.0,    9.3,   0.00,   0.00, 1016.3,   81.6, -999.0
21-05-2022, 00:02:08,    194,    0.0,    9.3,   0.00,   0.00, 1016.3,   81.5, -999.0
21-05-2022, 00:02:18,    194,    0.0,    9.3,   0.00,   0.00, 1016.3,   81.5, -999.0
21-05-2022, 00:02:28,    194,    0.0,    9.3,   0.00,   0.00, 1016.3,   81.3, -999.0
21-05-2022, 00:02:38,    199,    0.0,    9.3,   0.00,   0.00, 1016.3,   81.4, -999.0
21-05-2022, 00:02:48,    201,    0.0,    9.1,   0.00,   0.00, 1016.3,   81.4, -999.0
21-05-2022, 00:02:58,    222,    0.5,    9.3,   0.00,   0.00, 1016.4,   81.7, -999.0
21-05-2022, 00:03:08,    224,    1.1,    9.4,   0.00,   0.00, 1016.4,   81.8, -999.0
21-05-2022, 00:03:18,    228,    1.8,    9.3,   0.00,   0.00, 1016.4,   81.8, -999.0
21-05-2022, 00:03:28,    228,    1.2,    9.3,   0.00,   0.00, 1016.4,   81.9, -999.0
21-05-2022, 00:03:38,    228,    0.5,    9.4,   0.00,   0.00, 1016.4,   81.9, -999.0
21-05-2022, 00:03:47,    230,    0.8,    9.4,   0.00,   0.00, 1016.4,   81.8, -999.0
21-05-2022, 00:03:58,    229,    0.8,    9.4,   0.00,   0.00, 1016.4,   81.9, -999.0
21-05-2022, 00:04:08,    258,    1.4,    9.3,   0.00,   0.00, 1016.4,   82.0, -999.0
21-05-2022, 00:04:17,    243,    0.6,    9.3,   0.00,   0.00, 1016.4,   81.9, -999.0
21-05-2022, 00:04:27,    234,    1.0,    9.4,   0.00,   0.00, 1016.4,   81.9, -999.0
21-05-2022, 00:04:38,    235,    1.1,    9.3,   0.00,   0.00, 1016.4,   82.0, -999.0
21-05-2022, 00:04:47,    236,    1.7,    9.3,   0.00,   0.00, 1016.4,   82.0, -999.0
21-05-2022, 00:04:57,    273,    2.4,    9.3,   0.00,   0.00, 1016.4,   82.1, -999.0
21-05-2022, 00:05:07,    255,    1.0,    9.3,   0.00,   0.00, 1016.4,   81.9, -999.0
21-05-2022, 00:05:17,    264,    3.1,    9.3,   0.00,   0.00, 1016.4,   82.0, -999.0
21-05-2022, 00:05:27,    239,    2.8,    9.3,   0.00,   0.00, 1016.4,   82.0, -999.0
21-05-2022, 00:05:37,    234,    2.2,    9.3,   0.00,   0.00, 1016.4,   82.0, -999.0
21-05-2022, 00:05:47,    248,    0.8,    9.4,   0.00,   0.00, 1016.4,   82.0, -999.0
21-05-2022, 00:05:57,    296,    1.5,    9.3,   0.00,   0.00, 1016.4,   82.1, -999.0
21-05-2022, 00:06:07,    230,    2.0,    9.3,   0.00,   0.00, 1016.4,   82.1, -999.0
21-05-2022, 00:06:17,    233,    2.4,    9.4,   0.00,   0.00, 1016.4,   82.1, -999.0
21-05-2022, 00:06:27,    267,    1.6,    9.4,   0.00,   0.00, 1016.4,   82.2, -999.0
21-05-2022, 00:06:37,    260,    0.7,    9.3,   0.00,   0.00, 1016.4,   82.0, -999.0
21-05-2022, 00:06:47,    213,    1.4,    9.3,   0.00,   0.00, 1016.4,   82.0, -999.0
21-05-2022, 00:06:56,    206,    0.4,    9.3,   0.00,   0.00, 1016.3,   82.0, -999.0
21-05-2022, 00:07:07,    206,    0.2,    9.3,   0.00,   0.00, 1016.3,   81.9, -999.0
21-05-2022, 00:07:17,    228,    1.1,    9.3,   0.00,   0.00, 1016.4,   82.2, -999.0
21-05-2022, 00:07:26,    229,    1.1,    9.4,   0.00,   0.00, 1016.4,   82.1, -999.0
21-05-2022, 00:07:36,    230,    0.8,    9.3,   0.00,   0.00, 1016.4,   82.1, -999.0
21-05-2022, 00:07:47,    230,    0.8,    9.3,   0.00,   0.00, 1016.4,   82.0, -999.0
21-05-2022, 00:07:56,    222,    2.9,    9.4,   0.00,   0.00, 1016.4,   82.1, -999.0
21-05-2022, 00:08:06,    239,    3.2,    9.3,   0.00,   0.00, 1016.4,   82.2, -999.0
21-05-2022, 00:08:16,    235,    2.8,    9.4,   0.00,   0.00, 1016.4,   82.2, -999.0
21-05-2022, 00:08:26,    225,    2.8,    9.4,   0.00,   0.00, 1016.4,   82.2, -999.0
21-05-2022, 00:08:36,    219,    1.1,    9.4,   0.00,   0.00, 1016.4,   82.2, -999.0
21-05-2022, 00:08:46,    226,    1.3,    9.3,   0.00,   0.00, 1016.4,   82.1, -999.0
21-05-2022, 00:08:56,    266,    2.7,    9.4,   0.00,   0.00, 1016.4,   82.2, -999.0
21-05-2022, 00:09:06,    254,    2.8,    9.4,   0.00,   0.00, 1016.4,   82.2, -999.0
21-05-2022, 00:09:16,    243,    2.7,    9.4,   0.00,   0.00, 1016.4,   82.0, -999.0
21-05-2022, 00:09:26,    255,    3.4,    9.4,   0.00,   0.00, 1016.4,   82.1, -999.0
21-05-2022, 00:09:36,    237,    2.0,    9.3,   0.00,   0.00, 1016.4,   81.9, -999.0
21-05-2022, 00:09:46,    231,    0.6,    9.4,   0.00,   0.00, 1016.4,   82.0, -999.0
21-05-2022, 00:09:56,    231,    0.3,    9.3,   0.00,   0.00, 1016.4,   82.0, -999.0
21-05-2022, 00:10:06,    231,    0.0,    9.3,   0.00,   0.00, 1016.2,   81.7, -999.0
21-05-2022, 00:10:16,    231,    0.1,    9.3,   0.00,   0.00, 1016.3,   81.9, -999.0
21-05-2022, 00:10:26,    231,    0.0,    9.3,   0.00,   0.00, 1016.2,   81.7, -999.0
21-05-2022, 00:10:35,    231,    0.0,    9.2,   0.00,   0.00, 1016.2,   81.5, -999.0
21-05-2022, 00:10:46,    232,    0.5,    9.3,   0.00,   0.00, 1016.4,   81.9, -999.0
21-05-2022, 00:10:56,    234,    1.8,    9.4,   0.00,   0.00, 1016.4,   82.0, -999.0
21-05-2022, 00:11:05,    238,    1.6,    9.3,   0.00,   0.00, 1016.4,   81.9, -999.0
21-05-2022, 00:11:15,    233,    0.4,    9.2,   0.00,   0.00, 1016.3,   82.0, -999.0
21-05-2022, 00:11:25,    233,    0.0,    9.2,   0.00,   0.00, 1016.2,   81.7, -999.0
21-05-2022, 00:11:35,    233,    0.0,    9.2,   0.00,   0.00, 1016.2,   81.6, -999.0
21-05-2022, 00:11:45,    233,    0.0,    9.2,   0.00,   0.00, 1016.2,   81.7, -999.0
21-05-2022, 00:11:55,    233,    0.0,    9.2,   0.00,   0.00, 1016.2,   81.7, -999.0
21-05-2022, 00:12:05,    234,    0.0,    9.1,   0.00,   0.00, 1016.2,   81.6, -999.0
21-05-2022, 00:12:15,    234,    0.0,    9.2,   0.00,   0.00, 1016.2,   81.6, -999.0
21-05-2022, 00:12:25,    234,    0.0,    9.2,   0.00,   0.00, 1016.2,   81.7, -999.0
21-05-2022, 00:12:35,    234,    0.0,    9.2,   0.00,   0.00, 1016.1,   81.7, -999.0
21-05-2022, 00:12:45,    236,    0.3,    9.2,   0.00,   0.00, 1016.3,   82.0, -999.0
21-05-2022, 00:12:55,    256,    1.4,    9.3,   0.00,   0.00, 1016.3,   82.0, -999.0
21-05-2022, 00:13:05,    256,    0.2,    9.1,   0.00,   0.00, 1016.3,   81.9, -999.0
21-05-2022, 00:13:15,    256,    0.0,    9.2,   0.00,   0.00, 1016.2,   81.7, -999.0
21-05-2022, 00:13:25,    256,    0.0,    9.2,   0.00,   0.00, 1016.2,   81.7, -999.0
21-05-2022, 00:13:35,    256,    0.0,    9.1,   0.00,   0.00, 1016.2,   81.7, -999.0
21-05-2022, 00:13:44,    255,    0.0,    9.1,   0.00,   0.00, 1016.2,   81.7, -999.0
21-05-2022, 00:13:55,    237,    0.4,    9.2,   0.00,   0.00, 1016.3,   82.0, -999.0
21-05-2022, 00:14:05,    236,    0.5,    9.3,   0.00,   0.00, 1016.4,   82.2, -999.0
21-05-2022, 00:14:14,    244,    1.1,    9.2,   0.00,   0.00, 1016.4,   82.2, -999.0
21-05-2022, 00:14:24,    254,    1.1,    9.2,   0.00,   0.00, 1016.3,   82.1, -999.0
21-05-2022, 00:14:35,    237,    2.8,    9.2,   0.00,   0.00, 1016.3,   82.3, -999.0
21-05-2022, 00:14:44,    247,    1.3,    9.1,   0.00,   0.00, 1016.3,   82.3, -999.0
21-05-2022, 00:14:54,    260,    1.3,    9.3,   0.00,   0.00, 1016.3,   82.4, -999.0
21-05-2022, 00:15:04,    228,    1.6,    9.3,   0.00,   0.00, 1016.4,   82.2, -999.0
21-05-2022, 00:15:14,    226,    0.4,    9.2,   0.00,   0.00, 1016.3,   82.1, -999.0
21-05-2022, 00:15:24,    226,    0.0,    9.2,   0.00,   0.00, 1016.2,   82.0, -999.0
21-05-2022, 00:15:34,    228,    0.0,    9.2,   0.00,   0.00, 1016.2,   81.9, -999.0
21-05-2022, 00:15:44,    256,    2.2,    9.2,   0.00,   0.00, 1016.4,   82.3, -999.0
21-05-2022, 00:15:54,    239,    1.0,    9.3,   0.00,   0.00, 1016.4,   82.3, -999.0
21-05-2022, 00:16:04,    242,    1.4,    9.3,   0.00,   0.00, 1016.4,   82.3, -999.0
21-05-2022, 00:16:14,    241,    0.1,    9.2,   0.00,   0.00, 1016.3,   82.2, -999.0
21-05-2022, 00:16:24,    241,    0.0,    9.2,   0.00,   0.00, 1016.3,   82.0, -999.0
21-05-2022, 00:16:34,    241,    0.0,    9.1,   0.00,   0.00, 1016.2,   82.1, -999.0
21-05-2022, 00:16:44,    240,    0.0,    9.2,   0.00,   0.00, 1016.2,   81.9, -999.0
21-05-2022, 00:16:53,    241,    0.0,    9.2,   0.00,   0.00, 1016.2,   82.0, -999.0
21-05-2022, 00:17:04,    273,    2.0,    9.3,   0.00,   0.00, 1016.3,   82.4, -999.0
21-05-2022, 00:17:14,    274,    2.0,    9.3,   0.00,   0.00, 1016.3,   82.4, -999.0
21-05-2022, 00:17:23,    267,    0.0,    9.2,   0.00,   0.00, 1016.3,   82.2, -999.0
21-05-2022, 00:17:34,    243,    0.9,    9.2,   0.00,   0.00, 1016.3,   82.2, -999.0
21-05-2022, 00:17:44,    234,    1.7,    9.3,   0.00,   0.00, 1016.4,   82.4, -999.0
21-05-2022, 00:17:53,    226,    0.9,    9.3,   0.00,   0.00, 1016.4,   82.4, -999.0
21-05-2022, 00:18:03,    227,    0.7,    9.3,   0.00,   0.00, 1016.3,   82.4, -999.0
21-05-2022, 00:18:13,    231,    0.3,    9.2,   0.00,   0.00, 1016.3,   82.5, -999.0
21-05-2022, 00:18:23,    225,    0.0,    9.2,   0.00,   0.00, 1016.2,   82.1, -999.0
21-05-2022, 00:18:33,    225,    0.0,    9.1,   0.00,   0.00, 1016.2,   82.1, -999.0
21-05-2022, 00:18:43,    227,    1.5,    9.1,   0.00,   0.00, 1016.3,   82.4, -999.0
21-05-2022, 00:18:53,    234,    2.9,    9.2,   0.00,   0.00, 1016.3,   82.5, -999.0
21-05-2022, 00:19:03,    269,    1.5,    9.2,   0.00,   0.00, 1016.3,   82.4, -999.0
21-05-2022, 00:19:13,    255,    1.2,    9.3,   0.00,   0.00, 1016.3,   82.6, -999.0
21-05-2022, 00:19:23,    213,    0.5,    9.2,   0.00,   0.00, 1016.3,   82.5, -999.0
21-05-2022, 00:19:33,    211,    1.7,    9.2,   0.00,   0.00, 1016.3,   82.4, -999.0
21-05-2022, 00:19:43,    267,    3.0,    9.3,   0.00,   0.00, 1016.4,   82.5, -999.0
21-05-2022, 00:19:53,    247,    3.3,    9.3,   0.00,   0.00, 1016.4,   82.6, -999.0
21-05-2022, 00:20:03,    250,    3.4,    9.3,   0.00,   0.00, 1016.4,   82.6, -999.0
21-05-2022, 00:20:13,    221,    3.0,    9.3,   0.00,   0.00, 1016.3,   82.6, -999.0
21-05-2022, 00:20:23,    239,    2.6,    9.3,   0.00,   0.00, 1016.3,   82.6, -999.0
21-05-2022, 00:20:32,    241,    3.4,    9.3,   0.00,   0.00, 1016.3,   82.6, -999.0
21-05-2022, 00:20:43,    201,    1.2,    9.3,   0.00,   0.00, 1016.3,   82.7, -999.0
21-05-2022, 00:20:53,    211,    1.4,    9.2,   0.00,   0.00, 1016.4,   82.6, -999.0
21-05-2022, 00:21:02,    250,    2.0,    9.2,   0.00,   0.00, 1016.3,   82.6, -999.0
21-05-2022, 00:21:12,    247,    1.9,    9.3,   0.00,   0.00, 1016.3,   82.6, -999.0
21-05-2022, 00:21:22,    218,    2.5,    9.3,   0.00,   0.00, 1016.3,   82.6, -999.0
21-05-2022, 00:21:32,    240,    1.9,    9.3,   0.00,   0.00, 1016.3,   82.6, -999.0
21-05-2022, 00:21:42,    243,    0.8,    9.2,   0.00,   0.00, 1016.3,   82.5, -999.0
21-05-2022, 00:21:52,    243,    0.1,    9.2,   0.00,   0.00, 1016.2,   82.5, -999.0
21-05-2022, 00:22:02,    243,    0.0,    9.2,   0.00,   0.00, 1016.2,   82.5, -999.0
21-05-2022, 00:22:12,    243,    0.0,    9.2,   0.00,   0.00, 1016.2,   82.3, -999.0
21-05-2022, 00:22:22,    243,    0.0,    9.1,   0.00,   0.00, 1016.2,   82.2, -999.0
21-05-2022, 00:22:32,    212,    0.0,    9.1,   0.00,   0.00, 1016.2,   82.3, -999.0
21-05-2022, 00:22:42,    212,    0.0,    9.2,   0.00,   0.00, 1016.3,   82.5, -999.0
21-05-2022, 00:22:52,    212,    0.0,    9.1,   0.00,   0.00, 1016.2,   82.1, -999.0
21-05-2022, 00:23:02,    212,    0.0,    9.1,   0.00,   0.00, 1016.2,   82.2, -999.0
21-05-2022, 00:23:12,    212,    0.0,    9.2,   0.00,   0.00, 1016.2,   82.2, -999.0
21-05-2022, 00:23:22,    214,    0.4,    9.2,   0.00,   0.00, 1016.3,   82.4, -999.0
21-05-2022, 00:23:32,    236,    1.3,    9.3,   0.00,   0.00, 1016.3,   82.5, -999.0
21-05-2022, 00:23:41,    239,    0.6,    9.2,   0.00,   0.00, 1016.4,   82.6, -999.0
21-05-2022, 00:23:52,    247,    0.7,    9.3,   0.00,   0.00, 1016.3,   82.6, -999.0
21-05-2022, 00:24:02,    246,    0.2,    9.2,   0.00,   0.00, 1016.2,   82.4, -999.0
21-05-2022, 00:24:11,    256,    0.3,    9.2,   0.00,   0.00, 1016.2,   82.4, -999.0
21-05-2022, 00:24:22,    228,    0.4,    9.2,   0.00,   0.00, 1016.3,   82.5, -999.0
21-05-2022, 00:24:31,    229,    0.2,    9.2,   0.00,   0.00, 1016.3,   82.3, -999.0
21-05-2022, 00:24:41,    237,    1.2,    9.2,   0.00,   0.00, 1016.3,   82.5, -999.0
21-05-2022, 00:24:51,    236,    0.1,    9.1,   0.00,   0.00, 1016.3,   82.2, -999.0
21-05-2022, 00:25:01,    236,    1.0,    9.2,   0.00,   0.00, 1016.3,   82.3, -999.0
21-05-2022, 00:25:11,    293,    1.8,    9.2,   0.00,   0.00, 1016.3,   82.7, -999.0
21-05-2022, 00:25:21,    205,    1.7,    9.2,   0.00,   0.00, 1016.3,   82.6, -999.0
21-05-2022, 00:25:31,    223,    1.4,    9.2,   0.00,   0.00, 1016.3,   82.6, -999.0
21-05-2022, 00:25:41,    209,    1.0,    9.3,   0.00,   0.00, 1016.3,   82.6, -999.0
21-05-2022, 00:25:51,    235,    0.4,    9.2,   0.00,   0.00, 1016.3,   82.6, -999.0
21-05-2022, 00:26:01,    236,    0.6,    9.2,   0.00,   0.00, 1016.3,   82.7, -999.0
21-05-2022, 00:26:11,    249,    0.2,    9.1,   0.00,   0.00, 1016.2,   82.5, -999.0
21-05-2022, 00:26:21,    242,    2.2,    9.2,   0.00,   0.00, 1016.4,   82.7, -999.0
21-05-2022, 00:26:31,    246,    1.8,    9.1,   0.00,   0.00, 1016.3,   82.6, -999.0
21-05-2022, 00:26:41,    229,    0.7,    9.2,   0.00,   0.00, 1016.3,   82.6, -999.0
21-05-2022, 00:26:51,    228,    0.0,    9.1,   0.00,   0.00, 1016.2,   82.4, -999.0
21-05-2022, 00:27:01,    228,    0.0,    9.1,   0.00,   0.00, 1016.2,   82.5, -999.0
21-05-2022, 00:27:11,    230,    0.2,    9.1,   0.00,   0.00, 1016.2,   82.5, -999.0
21-05-2022, 00:27:20,    230,    0.7,    9.2,   0.00,   0.00, 1016.3,   82.6, -999.0
21-05-2022, 00:27:31,    230,    0.4,    9.2,   0.00,   0.00, 1016.2,   82.6, -999.0
21-05-2022, 00:27:40,    230,    0.0,    9.1,   0.00,   0.00, 1016.1,   82.3, -999.0
21-05-2022, 00:27:50,    231,    0.0,    9.1,   0.00,   0.00, 1016.1,   82.4, -999.0
21-05-2022, 00:28:00,    230,    0.0,    9.2,   0.00,   0.00, 1016.2,   82.5, -999.0
21-05-2022, 00:28:10,    211,    0.8,    9.2,   0.00,   0.00, 1016.2,   82.6, -999.0
21-05-2022, 00:28:20,    242,    1.7,    9.3,   0.00,   0.00, 1016.3,   82.8, -999.0
21-05-2022, 00:28:30,    245,    1.7,    9.2,   0.00,   0.00, 1016.3,   82.9, -999.0
21-05-2022, 00:28:40,    245,    0.2,    9.2,   0.00,   0.00, 1016.2,   82.7, -999.0
21-05-2022, 00:28:50,    248,    0.8,    9.2,   0.00,   0.00, 1016.2,   82.6, -999.0
21-05-2022, 00:29:00,    245,    1.6,    9.3,   0.00,   0.00, 1016.3,   82.8, -999.0
21-05-2022, 00:29:10,    247,    1.1,    9.3,   0.00,   0.00, 1016.3,   82.7, -999.0
21-05-2022, 00:29:20,    194,    0.4,    9.2,   0.00,   0.00, 1016.2,   82.6, -999.0
21-05-2022, 00:29:30,    211,    0.3,    9.2,   0.00,   0.00, 1016.2,   82.7, -999.0
21-05-2022, 00:29:40,    238,    2.4,    9.3,   0.00,   0.00, 1016.2,   82.9, -999.0
21-05-2022, 00:29:50,    243,    1.9,    9.2,   0.00,   0.00, 1016.3,   82.8, -999.0
21-05-2022, 00:30:00,    187,    0.8,    9.2,   0.00,   0.00, 1016.2,   82.6, -999.0
21-05-2022, 00:30:10,    205,    1.4,    9.3,   0.00,   0.00, 1016.2,   82.8, -999.0
21-05-2022, 00:30:20,    205,    0.1,    9.2,   0.00,   0.00, 1016.1,   82.5, -999.0
21-05-2022, 00:30:29,    205,    0.0,    9.1,   0.00,   0.00, 1016.1,   82.4, -999.0
21-05-2022, 00:30:40,    207,    0.0,    9.1,   0.00,   0.00, 1016.1,   82.4, -999.0
21-05-2022, 00:30:49,    206,    0.0,    9.1,   0.00,   0.00, 1016.1,   82.5, -999.0
21-05-2022, 00:30:59,    209,    0.1,    9.1,   0.00,   0.00, 1016.2,   82.6, -999.0
21-05-2022, 00:31:09,    268,    0.7,    9.1,   0.00,   0.00, 1016.3,   82.8, -999.0
21-05-2022, 00:31:19,    253,    4.9,    9.2,   0.00,   0.00, 1016.3,   82.8, -999.0
21-05-2022, 00:31:29,    224,    3.9,    9.2,   0.00,   0.00, 1016.2,   82.8, -999.0
21-05-2022, 00:31:39,    251,    1.8,    9.2,   0.00,   0.00, 1016.3,   82.8, -999.0
21-05-2022, 00:31:49,    186,    0.8,    9.2,   0.00,   0.00, 1016.2,   82.9, -999.0
21-05-2022, 00:31:59,    194,    0.6,    9.2,   0.00,   0.00, 1016.2,   82.9, -999.0
21-05-2022, 00:32:09,    195,    0.5,    9.2,   0.00,   0.00, 1016.3,   82.9, -999.0
21-05-2022, 00:32:19,    228,    1.6,    9.2,   0.00,   0.00, 1016.3,   83.0, -999.0
21-05-2022, 00:32:29,    220,    2.3,    9.2,   0.00,   0.00, 1016.3,   82.9, -999.0
21-05-2022, 00:32:39,    200,    1.0,    9.2,   0.00,   0.00, 1016.3,   82.9, -999.0
21-05-2022, 00:32:49,    243,    0.5,    9.1,   0.00,   0.00, 1016.2,   82.9, -999.0
21-05-2022, 00:32:59,    234,    0.7,    9.2,   0.00,   0.00, 1016.3,   83.0, -999.0
21-05-2022, 00:33:09,    235,    0.4,    9.2,   0.00,   0.00, 1016.2,   82.9, -999.0
21-05-2022, 00:33:19,    235,    0.0,    9.1,   0.00,   0.00, 1016.1,   82.6, -999.0
21-05-2022, 00:33:29,    235,    0.0,    9.0,   0.00,   0.00, 1016.1,   82.6, -999.0
21-05-2022, 00:33:39,    279,    0.7,    9.1,   0.00,   0.00, 1016.2,   82.8, -999.0
21-05-2022, 00:33:49,    241,    0.5,    9.1,   0.00,   0.00, 1016.2,   82.8, -999.0
21-05-2022, 00:33:58,    186,    0.3,    9.1,   0.00,   0.00, 1016.2,   82.8, -999.0
21-05-2022, 00:34:08,    186,    0.1,    9.1,   0.00,   0.00, 1016.2,   82.7, -999.0
21-05-2022, 00:34:19,    186,    0.0,    9.1,   0.00,   0.00, 1016.2,   82.6, -999.0
21-05-2022, 00:34:28,    186,    0.0,    9.1,   0.00,   0.00, 1016.1,   82.5, -999.0
21-05-2022, 00:34:38,    222,    0.3,    9.1,   0.00,   0.00, 1016.2,   82.8, -999.0
21-05-2022, 00:34:48,    272,    0.9,    9.1,   0.00,   0.00, 1016.3,   82.9, -999.0
21-05-2022, 00:34:58,    235,    0.7,    9.2,   0.00,   0.00, 1016.3,   82.9, -999.0
21-05-2022, 00:35:08,    228,    1.6,    9.2,   0.00,   0.00, 1016.3,   83.1, -999.0
21-05-2022, 00:35:18,    236,    1.5,    9.1,   0.00,   0.00, 1016.3,   83.1, -999.0
21-05-2022, 00:35:28,    201,    1.6,    9.1,   0.00,   0.00, 1016.3,   83.0, -999.0
21-05-2022, 00:35:38,    207,    1.2,    9.2,   0.00,   0.00, 1016.3,   83.0, -999.0
21-05-2022, 00:35:48,    207,    0.0,    9.1,   0.00,   0.00, 1016.2,   82.6, -999.0
21-05-2022, 00:35:58,    212,    0.2,    9.1,   0.00,   0.00, 1016.2,   82.8, -999.0
21-05-2022, 00:36:08,    213,    0.0,    9.1,   0.00,   0.00, 1016.2,   82.7, -999.0
21-05-2022, 00:36:18,    213,    0.1,    9.1,   0.00,   0.00, 1016.2,   82.8, -999.0
21-05-2022, 00:36:28,    222,    1.8,    9.1,   0.00,   0.00, 1016.3,   83.0, -999.0
21-05-2022, 00:36:38,    231,    1.5,    9.2,   0.00,   0.00, 1016.3,   83.0, -999.0
21-05-2022, 00:36:48,    232,    0.4,    9.1,   0.00,   0.00, 1016.3,   82.9, -999.0
21-05-2022, 00:36:58,    232,    0.1,    9.1,   0.00,   0.00, 1016.2,   82.7, -999.0
21-05-2022, 00:37:07,    232,    0.0,    9.1,   0.00,   0.00, 1016.2,   82.7, -999.0
21-05-2022, 00:37:17,    236,    0.7,    9.1,   0.00,   0.00, 1016.2,   82.9, -999.0
21-05-2022, 00:37:28,    245,    2.1,    9.2,   0.00,   0.00, 1016.3,   83.0, -999.0
21-05-2022, 00:37:37,    237,    3.8,    9.1,   0.00,   0.00, 1016.3,   83.1, -999.0
21-05-2022, 00:37:47,    209,    3.6,    9.1,   0.00,   0.00, 1016.3,   83.1, -999.0
21-05-2022, 00:37:58,    213,    2.3,    9.1,   0.00,   0.00, 1016.3,   83.1, -999.0
21-05-2022, 00:38:07,    217,    1.0,    9.2,   0.00,   0.00, 1016.3,   83.2, -999.0
21-05-2022, 00:38:17,    217,    0.8,    9.2,   0.00,   0.00, 1016.4,   83.2, -999.0
21-05-2022, 00:38:27,    241,    3.4,    9.1,   0.00,   0.00, 1016.3,   83.2, -999.0
21-05-2022, 00:38:37,    277,    2.1,    9.2,   0.00,   0.00, 1016.2,   83.2, -999.0
21-05-2022, 00:38:47,    277,    0.1,    9.2,   0.00,   0.00, 1016.3,   83.1, -999.0
21-05-2022, 00:38:57,    276,    0.1,    9.1,   0.00,   0.00, 1016.2,   82.9, -999.0
21-05-2022, 00:39:07,    276,    0.0,    9.1,   0.00,   0.00, 1016.2,   83.1, -999.0
21-05-2022, 00:39:17,    255,    0.5,    9.1,   0.00,   0.00, 1016.2,   83.1, -999.0
21-05-2022, 00:39:27,    235,    1.4,    9.2,   0.00,   0.00, 1016.3,   83.3, -999.0
21-05-2022, 00:39:37,    209,    0.5,    9.1,   0.00,   0.00, 1016.3,   83.1, -999.0
21-05-2022, 00:39:46,    209,    0.1,    9.1,   0.00,   0.00, 1016.1,   82.8, -999.0
21-05-2022, 00:39:57,    216,    0.2,    9.1,   0.00,   0.00, 1016.2,   82.9, -999.0
21-05-2022, 00:40:07,    218,    0.2,    9.2,   0.00,   0.00, 1016.3,   83.0, -999.0
21-05-2022, 00:40:16,    223,    0.7,    9.1,   0.00,   0.00, 1016.2,   83.2, -999.0
21-05-2022, 00:40:27,    226,    0.9,    9.2,   0.00,   0.00, 1016.3,   83.1, -999.0
21-05-2022, 00:40:37,    225,    0.1,    9.1,   0.00,   0.00, 1016.2,   82.9, -999.0
21-05-2022, 00:40:46,    225,    0.0,    9.1,   0.00,   0.00, 1016.1,   82.7, -999.0
21-05-2022, 00:40:56,    226,    0.2,    9.1,   0.00,   0.00, 1016.2,   82.9, -999.0
21-05-2022, 00:41:07,    229,    1.4,    9.1,   0.00,   0.00, 1016.3,   83.1, -999.0
21-05-2022, 00:41:16,    228,    0.1,    9.1,   0.00,   0.00, 1016.2,   82.8, -999.0
21-05-2022, 00:41:26,    229,    0.0,    9.0,   0.00,   0.00, 1016.2,   82.8, -999.0
21-05-2022, 00:41:36,    212,    0.1,    9.1,   0.00,   0.00, 1016.2,   82.9, -999.0
21-05-2022, 00:41:46,    274,    1.4,    9.1,   0.00,   0.00, 1016.3,   83.2, -999.0
21-05-2022, 00:41:56,    275,    3.8,    9.1,   0.00,   0.00, 1016.3,   83.1, -999.0
21-05-2022, 00:42:06,    261,    2.2,    9.1,   0.00,   0.00, 1016.3,   83.2, -999.0
21-05-2022, 00:42:16,    248,    1.2,    9.2,   0.00,   0.00, 1016.3,   83.2, -999.0
21-05-2022, 00:42:26,    242,    0.0,    9.1,   0.00,   0.00, 1016.1,   82.9, -999.0
21-05-2022, 00:42:36,    242,    0.0,    9.1,   0.00,   0.00, 1016.1,   82.8, -999.0
21-05-2022, 00:42:46,    230,    0.0,    9.1,   0.00,   0.00, 1016.2,   83.0, -999.0
21-05-2022, 00:42:56,    230,    0.0,    9.1,   0.00,   0.00, 1016.1,   82.9, -999.0
21-05-2022, 00:43:06,    231,    0.0,    9.0,   0.00,   0.00, 1016.2,   82.9, -999.0
21-05-2022, 00:43:16,    231,    0.1,    9.0,   0.00,   0.00, 1016.2,   83.0, -999.0
21-05-2022, 00:43:25,    192,    0.0,    9.1,   0.00,   0.00, 1016.2,   83.0, -999.0
21-05-2022, 00:43:36,    237,    0.4,    9.1,   0.00,   0.00, 1016.2,   83.1, -999.0
21-05-2022, 00:43:46,    251,    0.9,    9.2,   0.00,   0.00, 1016.3,   83.2, -999.0
21-05-2022, 00:43:55,    249,    0.2,    9.1,   0.00,   0.00, 1016.2,   82.9, -999.0
21-05-2022, 00:44:05,    249,    0.0,    9.0,   0.00,   0.00, 1016.1,   82.8, -999.0
21-05-2022, 00:44:16,    248,    0.0,    9.0,   0.00,   0.00, 1016.2,   82.9, -999.0
21-05-2022, 00:44:25,    249,    0.2,    9.0,   0.00,   0.00, 1016.2,   83.0, -999.0
21-05-2022, 00:44:35,    247,    0.4,    9.1,   0.00,   0.00, 1016.3,   83.2, -999.0
21-05-2022, 00:44:45,    249,    1.0,    9.1,   0.00,   0.00, 1016.3,   83.2, -999.0
21-05-2022, 00:44:55,    249,    0.0,    9.0,   0.00,   0.00, 1016.2,   82.9, -999.0
21-05-2022, 00:45:05,    236,    0.0,    9.0,   0.00,   0.00, 1016.2,   82.8, -999.0
21-05-2022, 00:45:15,    236,    0.0,    8.9,   0.00,   0.00, 1016.2,   82.8, -999.0
21-05-2022, 00:45:25,    231,    0.0,    8.9,   0.00,   0.00, 1016.2,   82.8, -999.0
21-05-2022, 00:45:35,    232,    0.8,    9.0,   0.00,   0.00, 1016.3,   83.2, -999.0
21-05-2022, 00:45:45,    230,    1.3,    9.1,   0.00,   0.00, 1016.3,   83.3, -999.0
21-05-2022, 00:45:55,    209,    0.7,    9.1,   0.00,   0.00, 1016.2,   83.3, -999.0
21-05-2022, 00:46:05,    208,    0.3,    9.0,   0.00,   0.00, 1016.2,   83.4, -999.0
21-05-2022, 00:46:15,    209,    0.2,    9.0,   0.00,   0.00, 1016.2,   83.2, -999.0
21-05-2022, 00:46:25,    188,    1.8,    9.1,   0.00,   0.00, 1016.3,   83.4, -999.0
21-05-2022, 00:46:35,    224,    1.4,    9.1,   0.00,   0.00, 1016.3,   83.5, -999.0
21-05-2022, 00:46:45,    209,    0.4,    9.1,   0.00,   0.00, 1016.2,   83.3, -999.0